Wilmington, DE

8:48 PM EDT on April 21, 2018 (GMT -0400)
New Castle County

Weather History for KILG - August, 2013

Change the Weather History Date:

Saturday, August 31, 2013

  Actual Average Record
Temperature  
Mean Temperature 80 °F 73 °F  
Max Temperature 88 °F 82 °F 101 °F (1953)
Min Temperature 71 °F 64 °F 47 °F (1934)
Degree Days  
Heating Degree Days 0 0  
Month to date heating degree days 0 0  
Since 1 June heating degree days 0 17  
Since 1 July heating degree days 0 2  
Cooling Degree Days 15 8  
Month to date cooling degree days 270 316  
Year to date cooling degree days 1085 993  
Since 1 June cooling degree days 978 914  
Growing Degree Days 29 (Base 50)    
Moisture  
Dew Point 71 °F    
Average Humidity 76    
Maximum Humidity 93    
Minimum Humidity 59    
Precipitation  
Precipitation 0.00 in 0.10 in 3.95 in (1911)
Month to date precipitation 5.22 3.25  
Year to date precipitation 36.33 28.76  
Snow  
Snow 0.00 in 0.00 in 0.00 in (1894)
Month to date snowfall 0.0 0.0  
Since 1 June snowfall 0.0 0.0  
Since 1 July snowfall 0.0 0.0  
Snow Depth 0.00 in    
Sea Level Pressure  
Sea Level Pressure 29.87 in    
Wind  
Wind Speed 8 mph (South)    
Max Wind Speed 14 mph    
Max Gust Speed 17 mph    
Visibility 10 miles    
Events Thunderstorm    
T = Trace of Precipitation, MM = Missing Value Source: NWS Daily Summary

Daily Weather History Graph

Daily Weather History Graph

Search for Another Location

Airport or City:

Astronomy

Aug. 31, 2013 Rise Set
Actual Time 6:29 AM EDT 7:34 PM EDT
Civil Twilight 6:02 AM EDT 8:02 PM EDT
Nautical Twilight 5:29 AM EDT 8:35 PM EDT
Astronomical Twilight 4:54 AM EDT 9:09 PM EDT
Moon 1:57 AM EDT (8/31) 4:31 PM EDT (8/31)
Length of Visible Light 14h 00m
Length of Day
13h 04m
Waning Crescent, 21% of the Moon is Illuminated
Aug 31
Waning Crescent
Sep 5
New
Sep 12
First Quarter
Sep 19
Full
Sep 26
Last Quarter

Hourly Weather History & Observations

Time (EDT) Temp. Heat Index Dew Point Humidity Pressure Visibility Wind Dir Wind Speed Gust Speed Precip Events Conditions
12:51 AM 73.0 °F - 68.0 °F 84% 29.91 in 10.0 mi SSW 6.9 mph - N/A   Clear
1:51 AM 72.0 °F - 68.0 °F 87% 29.90 in 10.0 mi South 6.9 mph - N/A   Partly Cloudy
2:06 AM 71.6 °F - 69.8 °F 94% 29.90 in 10.0 mi South 8.1 mph - N/A   Mostly Cloudy
2:40 AM 71.6 °F - 69.8 °F 94% 29.89 in 10.0 mi South 8.1 mph - N/A   Partly Cloudy
2:51 AM 72.0 °F - 69.1 °F 91% 29.89 in 10.0 mi South 6.9 mph - N/A   Scattered Clouds
3:09 AM 71.6 °F - 69.8 °F 94% 29.90 in 10.0 mi South 5.8 mph - N/A   Mostly Cloudy
3:51 AM 72.0 °F - 70.0 °F 93% 29.88 in 9.0 mi South 8.1 mph - N/A   Overcast
4:51 AM 71.1 °F - 69.1 °F 93% 29.88 in 8.0 mi South 5.8 mph - N/A   Scattered Clouds
5:51 AM 71.1 °F - 69.1 °F 93% 29.88 in 9.0 mi South 4.6 mph - N/A   Mostly Cloudy
6:23 AM 71.6 °F - 69.8 °F 94% 29.88 in 9.0 mi South 5.8 mph - N/A   Scattered Clouds
6:51 AM 72.0 °F - 69.1 °F 91% 29.88 in 8.0 mi South 4.6 mph - N/A   Scattered Clouds
7:02 AM 71.6 °F - 69.8 °F 94% 29.89 in 8.0 mi South 4.6 mph - N/A   Mostly Cloudy
7:35 AM 71.6 °F - 69.8 °F 94% 29.89 in 9.0 mi South 6.9 mph - N/A   Partly Cloudy
7:51 AM 73.0 °F - 70.0 °F 90% 29.89 in 9.0 mi South 4.6 mph - N/A   Partly Cloudy
8:49 AM 73.4 °F - 69.8 °F 88% 29.89 in 10.0 mi South 8.1 mph - N/A   Mostly Cloudy
8:51 AM 73.9 °F - 70.0 °F 87% 29.89 in 10.0 mi South 8.1 mph - N/A   Partly Cloudy
8:58 AM 73.4 °F - 69.8 °F 88% 29.89 in 10.0 mi SSW 8.1 mph - N/A   Mostly Cloudy
9:14 AM 75.2 °F - 71.6 °F 89% 29.89 in 10.0 mi SSW 4.6 mph - N/A   Mostly Cloudy
9:51 AM 77.0 °F - 71.1 °F 82% 29.89 in 10.0 mi SSW 5.8 mph - N/A   Mostly Cloudy
10:40 AM 80.6 °F 84.6 °F 71.6 °F 74% 29.89 in 10.0 mi South 8.1 mph - N/A   Mostly Cloudy
10:49 AM 80.6 °F 84.6 °F 71.6 °F 74% 29.89 in 10.0 mi SSW 8.1 mph - N/A   Partly Cloudy
10:51 AM 80.1 °F 83.6 °F 71.1 °F 74% 29.88 in 10.0 mi SSW 6.9 mph - N/A   Scattered Clouds
11:51 AM 82.0 °F 86.7 °F 72.0 °F 71% 29.88 in 10.0 mi South 5.8 mph - N/A   Mostly Cloudy
12:07 PM 82.4 °F 88.2 °F 73.4 °F 74% 29.87 in 10.0 mi SSW 8.1 mph - N/A   Scattered Clouds
12:51 PM 84.0 °F 89.6 °F 72.0 °F 67% 29.86 in 10.0 mi South 9.2 mph - N/A   Scattered Clouds
1:51 PM 84.9 °F 91.4 °F 73.0 °F 67% 29.85 in 10.0 mi SSE 12.7 mph - N/A   Partly Cloudy
2:51 PM 87.1 °F 94.5 °F 73.0 °F 63% 29.84 in 10.0 mi SSW 10.4 mph - N/A   Mostly Cloudy
3:51 PM 87.1 °F 93.6 °F 72.0 °F 61% 29.82 in 10.0 mi SSW 12.7 mph - N/A   Partly Cloudy
4:51 PM 86.0 °F 92.2 °F 72.0 °F 63% 29.82 in 10.0 mi SSW 11.5 mph - N/A   Clear
5:51 PM 84.9 °F 90.7 °F 72.0 °F 65% 29.81 in 10.0 mi SW 9.2 mph - N/A   Clear
6:51 PM 82.9 °F 88.0 °F 72.0 °F 69% 29.82 in 10.0 mi SSW 9.2 mph - N/A   Clear
7:51 PM 82.0 °F 86.7 °F 72.0 °F 71% 29.83 in 10.0 mi SSW 6.9 mph - N/A   Clear
8:51 PM 81.0 °F 85.2 °F 72.0 °F 74% 29.85 in 10.0 mi South 9.2 mph - N/A   Clear
9:51 PM 80.1 °F 83.6 °F 71.1 °F 74% 29.86 in 10.0 mi South 10.4 mph - N/A   Partly Cloudy
10:51 PM 79.0 °F - 70.0 °F 74% 29.86 in 10.0 mi SSW 9.2 mph - N/A   Overcast
11:29 PM 78.8 °F - 69.8 °F 74% 29.86 in 10.0 mi SSW 5.8 mph - N/A Thunderstorm Clear
11:51 PM 78.1 °F - 70.0 °F 76% 29.85 in 10.0 mi SSW 6.9 mph - N/A   Partly Cloudy